Voltar ao catálogo

CZ-2C R/B

AtivoSSO
NORAD 61873·ROCKET BODY·🇨🇳 China

Lançado Nov 9, 2024 de Jiuquan Satellite Launch Center

Loading…

Próximas Passagens (próximas 24 horas)

TLE

AtualizadoSource: Space-Track

Época: Sep 14, 2026, 14:39 UTC

1 61873U 24203E   26257.61069952  .00006324  00000-0  18483-3 0  9998
2 61873  97.2933 320.7159 0071585 279.8956  79.4211 15.33085973102831

Acompanhe CZ-2C R/B em tempo real com AllMySat

Download on the App Store